Amsterdam, Netherlands

7:52 PM CEST on October 19, 2019 (GMT +0200)
Schiphol

Weather History for EHAM - August, 2019

Change the Weather History Date:

Friday, August 30, 2019

  Actual Average Record
Temperature  
Mean Temperature 62 °F -  
Max Temperature 71 °F 64 °F 77 °F (2005)
Min Temperature 53 °F 51 °F 50 °F (1998)
Degree Days  
Heating Degree Days 3    
Growing Degree Days 12 (Base 50)    
Moisture  
Dew Point 55 °F    
Average Humidity 77    
Maximum Humidity 100    
Minimum Humidity 49    
Precipitation  
Precipitation 0.00 in - - ()
Sea Level Pressure  
Sea Level Pressure 30.17 in    
Wind  
Wind Speed 7 mph ()    
Max Wind Speed 16 mph    
Max Gust Speed -    
Visibility 8.6 miles    
Events      
Averages and records for this station are not official NWS values.
T = Trace of Precipitation, MM = Missing Value Source: Averaged Metar Reports

Daily Weather History Graph

Daily Weather History Graph

Search for Another Location

Airport or City:

Astronomy

Aug. 30, 2019 Rise Set
Actual Time 6:48 AM CEST 8:33 PM CEST
Civil Twilight 6:12 AM CEST 9:09 PM CEST
Nautical Twilight 5:27 AM CEST 9:54 PM CEST
Astronomical Twilight 4:37 AM CEST 10:43 PM CEST
Moon 6:19 AM CEST (8/30) 9:03 PM CEST (8/30)
Length of Visible Light 14h 57m
Length of Day
13h 45m
Waning Crescent, 0% of the Moon is Illuminated
Aug 30
Waning Crescent
Aug 30
New
Sep 6
First Quarter
Sep 14
Full
Sep 22
Last Quarter

Hourly Weather History & Observations

Time (CEST) Temp. Dew Point Humidity Pressure Visibility Wind Dir Wind Speed Gust Speed Precip Events Conditions
12:00 AM 58 °F 54 °F 82% 30.19 in 19 mi SSW 4.5 mph - -   Partly Cloudy
12:25 AM 57.2 °F 53.6 °F 88% 30.18 in - SSW 6.9 mph - N/A   Clear
12:55 AM 57.2 °F 53.6 °F 88% 30.18 in - South 5.8 mph - N/A   Clear
1:00 AM 57 °F 54 °F 84% 30.19 in 10 mi South 6.7 mph - -   Partly Cloudy
1:25 AM 57.2 °F 53.6 °F 88% 30.18 in - South 5.8 mph - N/A   Clear
1:55 AM 55.4 °F 53.6 °F 94% 30.18 in - South 5.8 mph - N/A   Clear
2:00 AM 55 °F 52 °F 86% 30.19 in 8 mi South 4.5 mph - -   Partly Cloudy
2:25 AM 55.4 °F 51.8 °F 88% 30.18 in - South 5.8 mph - N/A   Clear
2:55 AM 55.4 °F 51.8 °F 88% 30.18 in - South 5.8 mph - N/A   Clear
3:00 AM 55 °F 52 °F 87% 30.18 in 9 mi South 6.7 mph - -   Partly Cloudy
3:25 AM 55.4 °F 51.8 °F 88% 30.18 in - South 4.6 mph - N/A   Clear
3:55 AM 55.4 °F 53.6 °F 94% 30.15 in - SSE 5.8 mph - N/A   Clear
4:00 AM 55 °F 53 °F 90% 30.18 in 8 mi South 4.5 mph - -   Partly Cloudy
4:25 AM 55.4 °F 51.8 °F 88% 30.15 in - South 5.8 mph - N/A   Clear
4:55 AM 57.2 °F 53.6 °F 88% 30.15 in - South 8.1 mph - N/A   Clear
5:00 AM 56 °F 53 °F 87% 30.18 in 8 mi South 6.7 mph - -   Partly Cloudy
5:25 AM 55.4 °F 53.6 °F 94% 30.15 in - South 5.8 mph - N/A   Clear
5:55 AM 55.4 °F 53.6 °F 94% 30.15 in 5.6 mi South 6.9 mph - N/A   Unknown
6:00 AM 55 °F 53 °F 92% 30.18 in 5 mi SSE 8.9 mph - -   Mist
6:25 AM 55.4 °F 53.6 °F 94% 30.15 in 5.0 mi South 5.8 mph - N/A   Unknown
6:55 AM 53.6 °F 53.6 °F 100% 30.18 in 4.3 mi South 6.9 mph - N/A   Unknown
7:00 AM 55 °F 54 °F 94% 30.19 in 4 mi South 6.7 mph - -   Mist
7:25 AM 55.4 °F 55.4 °F 100% 30.18 in 4.3 mi South 6.9 mph - N/A   Unknown
7:55 AM 57.2 °F 55.4 °F 94% 30.18 in 4.3 mi South 6.9 mph - N/A   Partly Cloudy
8:00 AM 58 °F 56 °F 90% 30.20 in 4 mi South 6.7 mph - -   Mist
8:25 AM 59.0 °F 57.2 °F 94% 30.18 in 5.0 mi South 8.1 mph - N/A   Unknown
8:55 AM 60.8 °F 57.2 °F 88% 30.18 in 5.0 mi South 9.2 mph - N/A   Partly Cloudy
9:00 AM 60 °F 58 °F 90% 30.20 in 4 mi South 8.9 mph - -   Mist
9:25 AM 60.8 °F 59.0 °F 94% 30.18 in 5.0 mi South 9.2 mph - N/A   Partly Cloudy
9:55 AM 64.4 °F 60.8 °F 88% 30.18 in 6.2 mi South 10.4 mph - N/A   Partly Cloudy
10:00 AM 64 °F 60 °F 81% 30.20 in 6 mi South 11.2 mph - -   Mist
10:25 AM 66.2 °F 59.0 °F 78% 30.18 in 6.2 mi SSW 11.5 mph - N/A   Partly Cloudy
10:55 AM 68.0 °F 59.0 °F 73% 30.18 in 6.2 mi SSW 12.7 mph - N/A   Partly Cloudy
11:00 AM 68 °F 58 °F 63% 30.20 in 11 mi SW 13.4 mph - -   Partly Cloudy
11:25 AM 68.0 °F 57.2 °F 68% 30.18 in 6.2 mi SSW 13.8 mph - N/A   Scattered Clouds
12:00 PM 70 °F 57 °F 54% 30.21 in 19 mi SSW 13.4 mph - -   Partly Cloudy
12:25 PM 69.8 °F 55.4 °F 60% 30.18 in 6.2 mi SW 12.7 mph - N/A   Scattered Clouds
12:55 PM 69.8 °F 55.4 °F 60% 30.18 in 6.2 mi SW 11.5 mph - N/A   Partly Cloudy
1:00 PM 69 °F 55 °F 52% 30.20 in 19 mi SW 11.2 mph - -   Partly Cloudy
1:25 PM 69.8 °F 55.4 °F 60% 30.18 in 6.2 mi SSW 11.5 mph - N/A   Partly Cloudy
1:55 PM 71.6 °F 55.4 °F 57% 30.18 in 6.2 mi SW 11.5 mph - N/A   Scattered Clouds
2:00 PM 71 °F 56 °F 49% 30.19 in 16 mi SW 13.4 mph - -   Partly Cloudy
2:25 PM 71.6 °F 59.0 °F 64% 30.18 in 6.2 mi WSW 12.7 mph - N/A   Partly Cloudy
2:55 PM 69.8 °F 57.2 °F 64% 30.18 in 6.2 mi West 11.5 mph - N/A   Scattered Clouds
3:25 PM 69.8 °F 59.0 °F 68% 30.18 in 6.2 mi West 16.1 mph - N/A   Partly Cloudy
3:55 PM 71.6 °F 57.2 °F 60% 30.18 in 6.2 mi West 13.8 mph - N/A   Partly Cloudy
4:00 PM 71 °F 57 °F 53% 30.18 in 16 mi WSW 13.4 mph - -   Partly Cloudy
4:25 PM 69.8 °F 55.4 °F 60% 30.15 in 6.2 mi WSW 12.7 mph - N/A   Partly Cloudy
4:55 PM 69.8 °F 55.4 °F 60% 30.15 in - West 11.5 mph - N/A   Clear
5:25 PM 69.8 °F 55.4 °F 60% 30.15 in - WSW 9.2 mph - N/A   Clear
5:55 PM 69.8 °F 57.2 °F 64% 30.15 in - West 8.1 mph - N/A   Clear
6:00 PM 70 °F 55 °F 50% 30.16 in 19 mi SSW 8.9 mph - -   Partly Cloudy
6:25 PM 69.8 °F 55.4 °F 60% 30.15 in - WSW 8.1 mph - N/A   Clear
6:55 PM 69.8 °F 57.2 °F 64% 30.15 in - West 8.1 mph - N/A   Clear
7:00 PM 69 °F 57 °F 57% 30.15 in 22 mi West 8.9 mph - -   Partly Cloudy
7:25 PM 68.0 °F 55.4 °F 64% 30.12 in - WNW 8.1 mph - N/A   Clear
7:55 PM 66.2 °F 55.4 °F 68% 30.12 in - West 8.1 mph - N/A   Clear
8:25 PM 62.6 °F 55.4 °F 77% 30.12 in - NW 5.8 mph - N/A   Clear
8:55 PM 62.6 °F 55.4 °F 77% 30.12 in - NNW 2.3 mph - N/A   Clear
9:00 PM 63 °F 55 °F 67% 30.14 in 25 mi North 2.2 mph - -   Partly Cloudy
9:25 PM 62.6 °F 55.4 °F 77% 30.12 in - Variable 2.3 mph - N/A   Clear
9:55 PM 60.8 °F 57.2 °F 88% 30.12 in - ENE 2.3 mph - N/A   Clear
10:00 PM 61 °F 56 °F 80% 30.14 in 19 mi NE 2.2 mph - -   Overcast
10:25 PM 60.8 °F 57.2 °F 88% 30.12 in - NE 1.2 mph - N/A   Clear
10:55 PM 60.8 °F 55.4 °F 82% 30.12 in - SE 1.2 mph - N/A   Clear
11:00 PM 60 °F 56 °F 83% 30.13 in 19 mi ESE 2.2 mph - -   Overcast
11:25 PM 59.0 °F 55.4 °F 88% 30.12 in - ESE 2.3 mph - N/A   Clear